Weather History for Jonesboro, AR

Change the Weather History Date:

Monday, September 26, 2011

  Actual Average Record
Temperature  
Mean Temperature 61 °F 68 °F  
Max Temperature 74 °F 80 °F 97 °F (1904)
Min Temperature 48 °F 56 °F 39 °F (2001)
Degree Days  
Heating Degree Days 4 2  
Month to date heating degree days 9 10  
Since 1 July heating degree days 9 10  
Cooling Degree Days 0 4  
Month to date cooling degree days 166 209  
Year to date cooling degree days 2154 1755  
Growing Degree Days 10 (Base 50)    
Moisture  
Dew Point 47 °F    
Average Humidity 63    
Maximum Humidity 93    
Minimum Humidity 33    
Precipitation  
Precipitation 0.00 in 0.11 in 2.53 in (2007)
Month to date precipitation 2.80 2.53  
Year to date precipitation 37.27 33.64  
Snow  
Snow 0.00 in 0.00 in 0.00 in (2002)
Month to date snowfall 0.0  
Since 1 July snowfall 0.0  
Since 1 September snowfall 0.0  
Snow Depth -    
Sea Level Pressure  
Sea Level Pressure 29.88 in    
Wind  
Wind Speed 4 mph (NW)    
Max Wind Speed 13 mph    
Max Gust Speed 17 mph    
Visibility 10 miles    
Events      
T = Trace of Precipitation, MM = Missing Value Source: NWS Daily Summary

Daily Weather History Graph

Daily Weather History Graph

Search for Another Location

Airport:

Trip Planner

Search our weather history database for the weather conditions in past years. The results will help you decide how hot, cold, wet, or windy it might be!

Date:

Astronomy

Sep. 26, 2011 Rise Set
Actual Time 6:53 AM CDT 6:53 PM CDT
Civil Twilight 6:27 AM CDT 7:19 PM CDT
Nautical Twilight 5:58 AM CDT 7:49 PM CDT
Astronomical Twilight 5:28 AM CDT 8:19 PM CDT
Moon 5:53 AM CDT (9/26) 6:10 PM CDT (9/26)
Length of Visible Light 12h 51m
Length of Day
12h 00m
Waning Crescent, 1% of the Moon is Illuminated
Sep 26
Waning Crescent
Sep 27
New
Oct 3
First Quarter
Oct 11
Full
Oct 19
Last Quarter

Hourly Weather History & Observations

Time (CDT) Temp. Dew Point Humidity Pressure Visibility Wind Dir Wind Speed Gust Speed Precip Events Conditions
12:53 AM 55.9 °F 52.0 °F 87% 29.81 in 10.0 mi Calm Calm - N/A   Clear
1:53 AM 52.0 °F 48.9 °F 89% 29.82 in 10.0 mi Calm Calm - N/A   Clear
2:53 AM 54.0 °F 50.0 °F 86% 29.81 in 10.0 mi NW 5.8 mph - N/A   Clear
3:53 AM 53.6 °F 48.2 °F 82% 29.83 in 10.0 mi Calm Calm - N/A   Clear
4:53 AM 48.9 °F 46.0 °F 90% 29.84 in 10.0 mi WNW 3.5 mph - N/A   Clear
5:53 AM 50.0 °F 46.9 °F 89% 29.85 in 10.0 mi NW 3.5 mph - N/A   Clear
6:53 AM 52.0 °F 46.0 °F 80% 29.87 in 10.0 mi NNW 6.9 mph - N/A   Clear
7:53 AM 54.0 °F 46.9 °F 77% 29.89 in 10.0 mi NW 5.8 mph - N/A   Clear
8:53 AM 57.9 °F 46.9 °F 67% 29.90 in 10.0 mi NNW 10.4 mph - N/A   Clear
9:53 AM 62.6 °F 46.4 °F 55% 29.93 in 10.0 mi NW 8.1 mph - N/A   Clear
10:53 AM 66.9 °F 46.0 °F 47% 29.93 in 10.0 mi NW 9.2 mph - N/A   Clear
11:53 AM 69.1 °F 44.1 °F 40% 29.93 in 10.0 mi NNW 8.1 mph - N/A   Clear
12:53 PM 71.1 °F 44.1 °F 38% 29.93 in 10.0 mi West 8.1 mph - N/A   Clear
1:53 PM 73.4 °F 44.6 °F 36% 29.92 in 10.0 mi Variable 6.9 mph - N/A   Clear
2:53 PM 73.9 °F 44.1 °F 34% 29.88 in 10.0 mi Variable 4.6 mph - N/A   Clear
3:53 PM 73.9 °F 44.1 °F 34% 29.87 in 10.0 mi Calm Calm - N/A   Clear
4:53 PM 73.9 °F 42.1 °F 32% 29.87 in 10.0 mi NW 8.1 mph - N/A   Clear
5:53 PM 73.0 °F 42.1 °F 33% 29.86 in 10.0 mi West 5.8 mph - N/A   Clear
6:53 PM 63.0 °F 48.9 °F 60% 29.87 in 10.0 mi NNW 3.5 mph - N/A   Clear
7:53 PM 59.0 °F 48.9 °F 69% 29.86 in 10.0 mi Calm Calm - N/A   Clear
8:53 PM 55.9 °F 50.0 °F 80% 29.88 in 10.0 mi Calm Calm - N/A   Clear
9:53 PM 55.9 °F 48.9 °F 77% 29.90 in 10.0 mi Calm Calm - N/A   Clear
10:53 PM 53.1 °F 48.0 °F 83% 29.90 in 10.0 mi Calm Calm - N/A   Clear
11:53 PM 54.0 °F 48.9 °F 83% 29.91 in 10.0 mi Calm Calm - N/A   Clear